Regional Weather Roundup
Issued by NWS Cleveland, OH

Home | Current Version | Previous Version | Text Only | Print | Product List | Glossary Off
Versions: 1 2 3 4 5 6 7 8 9 10 11 12 13 14 15 16 17 18 19 20 21 22 23 24 25 26 27 28 29 30 31 32 33 34 35 36 37 38 39 40 41 42 43 44 45 46 47 48 49 50

000
ASUS41 KCLE 221002
RWRCLE
OHIO REGIONAL WEATHER ROUNDUP
NATIONAL WEATHER SERVICE CLEVELAND, OH
600 AM EDT TUE JUL 22 2014

NOTE: "FAIR" INDICATES FEW OR NO CLOUDS BELOW 12,000 FEET WITH NO
SIGNIFICANT WEATHER AND/OR OBSTRUCTIONS TO VISIBILITY.

OHZ001>008-015>018-024>027-034-035-043-044-221100-
   NORTHWEST OHIO

CITY           SKY/WX    TMP DP  RH WIND       PRES   REMARKS
DEFIANCE       CLEAR     64  60  87 CALM      30.11S FOG
FINDLAY        CLEAR     65  62  90 CALM      30.11R
TOLEDO EXPRESS CLEAR     62  59  90 CALM      30.11S
TOLEDO EXEC    CLEAR     66  58  75 CALM      30.12R
LIMA           CLEAR     67  63  87 CALM      30.12R FOG
$$

OHZ009>014-019>023-028>033-038-089-221100-
   NORTHEAST OHIO

CITY           SKY/WX    TMP DP  RH WIND       PRES   REMARKS
CLE-HOPKINS    CLEAR     62  58  86 CALM      30.14R
CLE-LAKEFRONT  CLEAR     70  61  73 S10       30.10S
CUY CO. ARPT   NOT AVBL
LORAIN-ELYRIA  CLEAR     67  59  75 CALM      30.13R
ASHTABULA      CLEAR     61  59  93 CALM      30.15R FOG
AKRON-CANTON   CLEAR     68  64  87 CALM      30.14R
WOOSTER        CLEAR     62  59  90 CALM      30.15R FOG
MANSFIELD      CLEAR     66  62  87 S3        30.15R
YOUNGSTOWN     PTCLDY    64  63  96 E3        30.14R FOG
$$

OHZ042-051>053-060>062-070>072-077>081-221100-
  SOUTHWEST OHIO

CITY           SKY/WX    TMP DP  RH WIND       PRES   REMARKS
CINC-COVINGTON CLEAR     74  67  78 N5        30.11R
CINC-LUNKEN    FOG       66  66 100 CALM      30.10R VSB 1/2
HAMILTON       CLEAR     64  64 100 CALM      30.11R FOG
DAYTON         CLEAR     67  64  90 CALM      30.13R
WRIGHT-PAT AFB CLEAR     65  65  98 N3        30.12R
DAYTON GENERAL CLEAR     68  65  90 NE3       30.11R
WILMINGTON     CLEAR     66  63  90 CALM      30.12R
$$

OHZ036-037-039>041-045>050-054>059-063>069-073>076-082>088-221100-
  CENTRAL AND SOUTHEAST OHIO

CITY           SKY/WX    TMP DP  RH WIND       PRES   REMARKS
COLUMBUS       CLEAR     70  65  84 CALM      30.11R
OSU AIRPORT    CLEAR     67  65  93 CALM      30.12R FOG
BOLTON FIELD   CLEAR     65  65 100 CALM      30.13R FOG
RICKENBACK AFB CLEAR     68  64  86 CALM      30.11R FOG
NEWARK         FOG       64  62  93 CALM      30.12R VSB 1
MARION         CLEAR     67  61  81 CALM      30.13R
LANCASTER      CLOUDY    64  63  96 CALM      30.12R FOG
ZANESVILLE     CLEAR     66  64  93 CALM      30.12S FOG
NEW PHILLY     FOG       64  64 100 CALM      30.14R VSB 1/2
$$


USA.gov is the U.S. government's official web portal to all federal, state and local government web resources and services.